[[{"header":{"parameterUnit":"m.s-1","parameterCategory":1,"la1":30.2991,"la2":30.254,"lo1":-89.0895,"lo2":-89.0444,"dy":0.0017,"dx":0.0017,"nx":28,"ny":28,"refTime":"2025-03-14T09:00:00:Z","depth":0,"parameterNumber":2,"parameterNumberName":"U-component_of_WINDS"},"data":[0,0,0,0,0,0,0,0,0,0,0,0,0,0,0,0,0,0,0,0,0,0,0,0,0,0,0,0,0,0,0,0,0,0,0,0,0,0,0,0,0,0,0,0,0,0,0,0,0,0,0,0,0,0,0,0,0,0,5.474,5.474,0,5.4698,5.4698,5.4698,5.4598,5.4596,5.4594,5.4592,5.4551,5.4552,5.4553,0,0,0,0,0,0,0,0,0,0,0,0,0,5.4736,5.4736,5.474,5.474,5.4739,5.4699,5.4698,5.4697,5.4598,5.4596,5.4593,5.4591,5.4551,5.4552,5.4553,0,0,0,0,0,0,0,0,0,0,0,0,0,5.472,5.4736,5.474,5.4685,5.4679,5.4699,5.4698,5.4697,5.4599,5.4596,5.4593,5.459,5.4551,5.4552,5.4553,5.4624,0,0,5.4557,5.4558,0,0,0,0,0,0,0,0,5.4721,5.4721,5.4693,5.4689,5.4683,5.465,5.4681,5.4673,5.46,5.463,5.4592,5.4588,5.4587,5.4585,5.4584,5.4622,5.462,5.4557,5.4558,5.4559,5.4559,0,0,0,0,0,0,0,5.4722,5.4722,5.4724,5.4693,5.4687,5.4663,5.4657,5.4679,5.4626,5.4627,5.4619,5.4616,5.4583,5.4583,5.4582,5.4619,5.4557,5.4558,5.4559,5.456,5.4711,5.4714,0,0,0,0,0,0,5.4731,5.4723,5.4725,5.4722,5.4695,5.4665,5.4659,5.4664,5.4626,5.4617,5.4618,5.4611,5.4583,5.4581,5.4581,5.4659,5.4559,5.456,5.4561,5.4708,5.4712,5.4715,0,0,0,0,0,0,5.4732,5.4732,5.4727,5.4721,5.4718,5.4669,5.4675,5.4665,5.4664,5.4619,5.461,5.4628,5.458,5.4579,5.4613,5.4656,5.456,5.4562,5.4704,5.4709,5.4714,5.4817,0,0,0,0,0,0,5.4732,5.4733,5.4759,5.4722,5.4719,5.476,5.4678,5.4666,5.4666,5.4657,5.4626,5.4618,5.4577,5.4612,5.4615,5.4656,5.4563,5.47,5.4706,5.4712,5.4809,5.4825,5.4838,0,0,0,0,0,5.4732,5.479,5.4761,5.4761,5.475,5.4762,5.4761,5.4713,5.467,5.4696,5.4667,5.4619,5.4652,5.4616,5.4618,5.4661,5.4697,5.4705,5.4712,5.4803,5.4822,5.4837,0,0,0,0,0,0,5.4834,5.4784,5.4751,5.4799,5.4786,5.4746,5.4776,5.4734,5.4733,5.4724,5.4665,5.4659,5.4701,5.4685,5.4646,5.4726,5.4666,5.4674,5.4735,5.4752,5.4766,5.4769,5.4564,0,0,0,0,0,5.4862,5.4876,5.4832,5.4879,5.4874,5.4827,5.483,5.4794,5.4778,5.4772,5.4746,5.4733,5.4739,5.4745,5.475,5.4807,5.4798,5.4838,5.4852,5.4864,5.4871,5.4899,5.4915,5.4739,5.4739,5.4739,0,0,5.492,5.4895,5.4907,5.4899,5.4884,5.4899,5.4822,5.4842,5.4853,5.4775,5.4805,5.4786,5.4767,5.4813,5.4832,5.4801,5.4918,5.4873,5.4883,5.4883,5.4908,5.4925,5.4939,5.4744,5.4743,5.4743,0,0,5.5033,5.5016,5.5052,5.5039,5.5018,5.4986,5.4995,5.4961,5.4945,5.4974,5.4916,5.4928,5.4942,5.4931,5.4927,5.5036,5.4991,5.504,5.5113,5.5141,5.5154,5.5166,5.5203,5.5218,5.5047,5.5048,5.5048,0,5.5108,5.5128,5.5077,5.5099,5.5097,5.5027,5.5063,5.5053,5.5035,5.5035,5.5,5.5015,5.4998,5.5039,5.5066,5.5066,5.5074,5.5042,5.5157,5.5168,5.5178,5.5213,5.5227,5.5053,5.5053,5.5052,5.5052,0,5.5221,5.5236,5.5268,5.525,5.5252,5.5282,5.5234,5.5243,5.5207,5.5179,5.521,5.5187,5.5184,5.5192,5.5158,5.5229,5.5209,5.5167,5.5105,5.5202,5.5233,5.5246,5.5062,5.506,5.5058,5.5056,0,0,5.5396,5.5349,5.5361,5.5352,5.5323,5.5334,5.5361,5.5358,5.5365,5.5355,5.5375,5.5389,5.5349,5.5345,5.5309,5.5334,5.542,5.5288,5.5286,5.5311,5.5494,5.5524,5.554,5.539,5.5393,5.5395,5.5494,0,5.55,5.5541,5.5496,5.5547,5.5559,5.5494,5.5517,5.5502,5.5477,5.5485,5.5458,5.5467,5.5415,5.5411,5.5433,5.5405,5.5455,5.5397,5.5408,5.5409,5.5412,5.5557,5.559,5.5685,5.5507,5.5509,5.551,0,5.5627,5.5621,5.5674,5.5641,5.5644,5.5666,5.5659,5.5667,5.5649,5.5629,5.5625,5.5582,5.5605,5.5547,5.5578,5.554,5.5542,5.5529,5.5532,5.5529,5.5464,5.5556,5.5714,5.5728,5.553,5.5528,5.5527,0,5.5746,5.5753,5.5784,5.5779,5.5742,5.5758,5.5744,5.5722,5.5723,5.5718,5.5717,5.5716,5.5714,5.5714,5.5671,5.5633,5.5708,5.5646,5.5691,5.5692,5.5707,5.5707,5.5866,5.5713,5.5713,5.5713,5.5713,0,5.5866,5.59,5.5837,5.5856,5.5892,5.584,5.5877,5.5856,5.5838,5.5852,5.5797,5.5811,5.5755,5.5764,5.5731,5.5761,5.5762,5.5746,5.5736,5.5749,5.5751,5.5748,5.5739,5.5717,5.5716,5.5715,5.5714,0,5.6005,5.5964,5.5993,5.5956,5.5947,5.5976,5.5943,5.596,5.5932,5.595,5.5951,5.5907,5.5914,5.5872,5.5873,5.5851,5.5896,5.5877,5.5902,5.5895,5.5941,5.5936,5.6101,5.612,5.5958,5.596,5.5961,0,5.6082,5.6107,5.6072,5.6077,5.6065,5.6074,5.6074,5.6024,5.6027,5.6008,5.6026,5.6029,5.6028,5.6043,5.6011,5.601,5.5989,5.6047,5.5988,5.6,5.5987,5.5985,5.5986,5.6058,5.606,5.6062,5.6063,0,5.6224,5.6203,5.6205,5.62,5.6202,5.6196,5.6186,5.6194,5.614,5.6145,5.6151,5.6151,5.615,5.6153,5.6146,5.6132,5.6088,5.6082,5.6092,5.6104,5.6117,5.6108,5.5932,5.6078,5.6077,5.6076,5.6075,5.6074,5.6333,5.6351,5.6329,5.6333,5.632,5.6312,5.6325,5.6298,5.6303,5.6297,5.6268,5.628,5.6261,5.6247,5.6236,5.6244,5.6217,5.6232,5.6235,5.6239,5.6246,5.6118,5.6243,5.6243,5.6243,5.6242,5.6242,0,5.647,5.6452,5.6457,5.6444,5.6447,5.6407,5.6394,5.6399,5.641,5.6396,5.6396,5.6402,5.6405,5.6373,5.6372,5.6384,5.6364,5.6385,5.6382,5.6379,5.6272,5.6262,5.6401,5.6401,5.6401,5.6401,5.6401,5.6401,5.6541,5.6569,5.6545,5.6566,5.6548,5.6558,5.6554,5.6546,5.6534,5.6544,5.6546,5.6525,5.6504,5.65,5.65,5.6491,5.6492,5.6519,5.6503,5.6403,5.6387,5.6372,5.6363,5.6521,5.6521,5.6609,5.661,5.6611]},{"header":{"parameterUnit":"m.s-1","parameterCategory":1,"la1":30.2991,"la2":30.254,"lo1":-89.0895,"lo2":-89.0444,"dy":0.0017,"dx":0.0017,"nx":28,"ny":28,"refTime":"2025-03-14T09:00:00:Z","depth":0,"parameterNumber":3,"parameterNumberName":"V-component_of_WINDS"},"data":[0,0,0,0,0,0,0,0,0,0,0,0,0,0,0,0,0,0,0,0,0,0,0,0,0,0,0,0,0,0,0,0,0,0,0,0,0,0,0,0,0,0,0,0,0,0,0,0,0,0,0,0,0,0,0,0,0,0,4.7075,4.7075,0,4.7054,4.7054,4.7054,4.7029,4.7029,4.7028,4.7028,4.7008,4.7008,4.7008,0,0,0,0,0,0,0,0,0,0,0,0,0,4.7094,4.7094,4.7075,4.7075,4.7075,4.7054,4.7054,4.7054,4.7029,4.7029,4.7028,4.7028,4.7008,4.7008,4.7008,0,0,0,0,0,0,0,0,0,0,0,0,0,4.7081,4.7093,4.7075,4.706,4.7058,4.7054,4.7054,4.7054,4.7029,4.7029,4.7028,4.7027,4.7008,4.7008,4.7008,4.7018,0,0,4.7007,4.7007,0,0,0,0,0,0,0,0,4.7081,4.708,4.7062,4.7061,4.7059,4.7044,4.7053,4.7042,4.7029,4.704,4.7028,4.7027,4.7021,4.7019,4.7017,4.7017,4.7016,4.7007,4.7007,4.7007,4.7007,0,0,0,0,0,0,0,4.7082,4.7081,4.7067,4.7062,4.706,4.7054,4.7051,4.7051,4.7034,4.7039,4.7037,4.7035,4.702,4.7017,4.7016,4.7016,4.7007,4.7007,4.7007,4.7007,4.7021,4.7021,0,0,0,0,0,0,4.7085,4.7082,4.7068,4.7066,4.7069,4.7054,4.7051,4.7049,4.7034,4.7031,4.7036,4.7034,4.7018,4.7016,4.7015,4.7024,4.7007,4.7007,4.7006,4.702,4.7021,4.7021,0,0,0,0,0,0,4.7086,4.7084,4.7068,4.7073,4.7071,4.7054,4.7052,4.7049,4.7046,4.7031,4.7028,4.7036,4.7017,4.7016,4.7017,4.7023,4.7006,4.7006,4.7019,4.702,4.7021,4.7044,0,0,0,0,0,0,4.7087,4.7085,4.7089,4.7074,4.7071,4.707,4.7053,4.7049,4.7046,4.7044,4.7031,4.7028,4.7017,4.7017,4.7016,4.7023,4.7006,4.7019,4.702,4.7021,4.7042,4.7045,4.7048,0,0,0,0,0,4.7087,4.7097,4.7089,4.7087,4.7075,4.7071,4.7069,4.7055,4.7046,4.705,4.704,4.7028,4.7023,4.7017,4.7016,4.7023,4.7018,4.702,4.7021,4.7041,4.7045,4.7048,0,0,0,0,0,0,4.7114,4.7094,4.7086,4.709,4.7082,4.7067,4.7071,4.706,4.7054,4.7053,4.7036,4.7033,4.7036,4.703,4.7024,4.703,4.7019,4.702,4.7035,4.7038,4.704,4.7042,4.7006,0,0,0,0,0,4.712,4.7118,4.7101,4.7107,4.7103,4.7088,4.7085,4.7075,4.7066,4.7063,4.7053,4.7045,4.7041,4.7039,4.7035,4.7041,4.7037,4.7045,4.7047,4.705,4.7051,4.7052,4.7055,4.7025,4.7025,4.7025,0,0,4.7133,4.7122,4.7122,4.7112,4.7104,4.7102,4.7085,4.7084,4.7082,4.7063,4.7063,4.7055,4.7045,4.7048,4.7049,4.7043,4.7058,4.7051,4.7053,4.7053,4.7053,4.7056,4.7059,4.7026,4.7026,4.7026,0,0,4.7156,4.7148,4.7151,4.7143,4.7132,4.7121,4.7121,4.7107,4.7101,4.71,4.7085,4.7082,4.7077,4.707,4.7065,4.7083,4.7072,4.7082,4.7096,4.7098,4.71,4.7102,4.7107,4.7109,4.7083,4.7083,4.7083,0,4.7174,4.717,4.7154,4.7153,4.7149,4.713,4.7132,4.7126,4.7114,4.7111,4.7104,4.7094,4.7087,4.7087,4.7091,4.7089,4.7088,4.7084,4.7101,4.7103,4.7104,4.7109,4.7111,4.7085,4.7084,4.7084,4.7084,0,4.7192,4.719,4.7194,4.7181,4.7177,4.7178,4.7161,4.7159,4.7149,4.7138,4.7137,4.7127,4.7119,4.7118,4.7109,4.7117,4.7113,4.7104,4.7092,4.7108,4.7113,4.7114,4.7086,4.7086,4.7086,4.7085,0,0,4.7233,4.7209,4.7211,4.7204,4.7189,4.7187,4.7186,4.7178,4.7176,4.7167,4.7166,4.716,4.7151,4.7146,4.7135,4.7136,4.7149,4.7126,4.7126,4.713,4.7156,4.7163,4.7166,4.7142,4.7142,4.7142,4.7157,0,4.7252,4.725,4.7234,4.7236,4.7233,4.7214,4.7213,4.7204,4.7194,4.7189,4.7178,4.7174,4.7162,4.7159,4.7159,4.7148,4.7154,4.7147,4.714,4.714,4.7143,4.7168,4.7176,4.719,4.7158,4.7159,4.7159,0,4.7275,4.7267,4.7268,4.7251,4.7249,4.7249,4.7239,4.7235,4.7223,4.7216,4.7209,4.7196,4.7194,4.7182,4.7179,4.7174,4.717,4.7164,4.7164,4.7163,4.7151,4.7167,4.7194,4.7196,4.7162,4.7161,4.7161,0,4.7303,4.7293,4.7291,4.7286,4.7267,4.7267,4.7258,4.7246,4.7241,4.7232,4.7229,4.7221,4.7216,4.721,4.7195,4.7188,4.7192,4.718,4.7186,4.7186,4.7188,4.7188,4.7214,4.7186,4.7186,4.7186,4.7186,0,4.7327,4.7328,4.7303,4.7303,4.7303,4.7285,4.7286,4.7276,4.7265,4.7261,4.7245,4.7242,4.7222,4.7217,4.7206,4.7204,4.7202,4.7196,4.7193,4.7197,4.7198,4.7195,4.7193,4.7187,4.7187,4.7186,4.7186,0,4.7359,4.7342,4.7339,4.732,4.7315,4.7316,4.73,4.7298,4.7286,4.7282,4.728,4.7262,4.7255,4.7239,4.7228,4.722,4.7221,4.7216,4.7225,4.7223,4.7229,4.7229,4.7254,4.7256,4.7227,4.7228,4.7228,0,4.7374,4.7375,4.7355,4.7351,4.7343,4.7337,4.7332,4.7313,4.7308,4.7294,4.7294,4.7285,4.7277,4.7267,4.7253,4.7244,4.7238,4.7247,4.7236,4.724,4.7237,4.7237,4.7236,4.725,4.725,4.7251,4.7251,0,4.7404,4.7395,4.7388,4.7377,4.7371,4.7362,4.7352,4.7349,4.7328,4.7324,4.7315,4.7309,4.7297,4.7288,4.7277,4.7268,4.7256,4.7254,4.7255,4.7259,4.7264,4.7261,4.7231,4.7254,4.7253,4.7253,4.7253,4.7253,4.7428,4.7426,4.7412,4.7403,4.7394,4.7384,4.7381,4.7368,4.7361,4.7349,4.7338,4.7331,4.7317,4.73,4.7292,4.7286,4.728,4.7282,4.7282,4.7282,4.7284,4.7265,4.7284,4.7284,4.7284,4.7284,4.7284,0,4.7456,4.7445,4.7437,4.7423,4.7416,4.7404,4.7391,4.7387,4.738,4.7368,4.736,4.735,4.7341,4.7325,4.7315,4.7313,4.7307,4.7311,4.7311,4.7309,4.729,4.729,4.7316,4.7316,4.7316,4.7316,4.7316,4.7316,4.7469,4.7466,4.7455,4.7446,4.7435,4.7427,4.7421,4.7412,4.7402,4.7391,4.7383,4.7373,4.7359,4.7347,4.7338,4.7333,4.733,4.7336,4.733,4.7313,4.731,4.7307,4.7307,4.7336,4.7336,4.7348,4.7348,4.7348]}]]